"Time","Value","Approval","myLocation"
"2023-03-30 00:00",25.9191448143215,"Approved","OW445"
"2023-03-30 01:00",25.918145446484,"Approved","OW445"
"2023-03-30 02:00",25.9171460786465,"Approved","OW445"
"2023-03-30 03:00",25.917146710809,"Approved","OW445"
"2023-03-30 04:00",25.9161473429714,"Approved","OW445"
"2023-03-30 05:00",25.9141479751339,"Approved","OW445"
"2023-03-30 06:00",25.9131486072964,"Approved","OW445"
"2023-03-30 07:00",25.9131492394589,"Approved","OW445"
"2023-03-30 08:00",25.9111498716213,"Approved","OW445"
"2023-03-30 09:00",25.9101505037838,"Approved","OW445"
"2023-03-30 10:00",25.9091511359463,"Approved","OW445"
"2023-03-30 11:00",25.9081517681088,"Approved","OW445"
"2023-03-30 12:00",25.9061524002712,"Approved","OW445"
"2023-03-30 13:00",25.9051530324337,"Approved","OW445"
"2023-03-30 14:00",25.9041536645962,"Approved","OW445"
"2023-03-30 15:00",25.9021542967587,"Approved","OW445"
"2023-03-30 16:00",25.9101549289212,"Approved","OW445"
"2023-03-30 17:00",25.9091555610836,"Approved","OW445"
"2023-03-30 18:00",25.9081561932461,"Approved","OW445"
"2023-03-30 19:00",25.9061568254086,"Approved","OW445"
"2023-03-30 20:00",25.9051574575711,"Approved","OW445"
"2023-03-30 21:00",25.9041580897335,"Approved","OW445"
"2023-03-30 22:00",25.902158721896,"Approved","OW445"
"2023-03-30 23:00",25.9011593540585,"Approved","OW445"
"2023-03-31 00:00",25.899159986221,"Approved","OW445"
"2023-03-31 01:00",25.8981606183835,"Approved","OW445"
"2023-03-31 02:00",25.8961612505459,"Approved","OW445"
"2023-03-31 03:00",25.8951618827084,"Approved","OW445"
"2023-03-31 04:00",25.8931625148709,"Approved","OW445"
"2023-03-31 05:00",25.8921631470334,"Approved","OW445"
"2023-03-31 06:00",25.8901637791958,"Approved","OW445"
"2023-03-31 07:00",25.8881644113583,"Approved","OW445"
"2023-03-31 08:00",25.8871650435208,"Approved","OW445"
"2023-03-31 09:00",25.8851656756833,"Approved","OW445"
"2023-03-31 10:00",25.8841663078457,"Approved","OW445"
"2023-03-31 11:00",25.8811669400082,"Approved","OW445"
"2023-03-31 12:00",25.8801675721707,"Approved","OW445"
"2023-03-31 13:00",25.8791682043332,"Approved","OW445"
"2023-03-31 14:00",25.8761688364957,"Approved","OW445"
"2023-03-31 15:00",25.8751694686581,"Approved","OW445"
"2023-03-31 16:00",25.8731701008206,"Approved","OW445"
"2023-03-31 17:00",25.8711707329831,"Approved","OW445"
"2023-03-31 18:00",25.8701713651456,"Approved","OW445"
"2023-03-31 19:00",25.868171997308,"Approved","OW445"
"2023-03-31 20:00",25.8661726294705,"Approved","OW445"
"2023-03-31 21:00",25.865173261633,"Approved","OW445"
"2023-03-31 22:00",25.8631738937955,"Approved","OW445"
"2023-03-31 23:00",25.8621745259579,"Approved","OW445"
"2023-04-01 00:00",25.8601751581204,"Approved","OW445"
"2023-04-01 01:00",25.8591757902829,"Approved","OW445"
"2023-04-01 02:00",25.8581764224454,"Approved","OW445"
"2023-04-01 03:00",25.8561770546079,"Approved","OW445"
"2023-04-01 04:00",25.8551776867703,"Approved","OW445"
"2023-04-01 05:00",25.8531783189328,"Approved","OW445"
"2023-04-01 06:00",25.8521789510953,"Approved","OW445"
"2023-04-01 07:00",25.8511795832578,"Approved","OW445"
"2023-04-01 08:00",25.8491802154202,"Approved","OW445"
"2023-04-01 09:00",25.8471808475827,"Approved","OW445"
"2023-04-01 10:00",25.8461814797452,"Approved","OW445"
"2023-04-01 11:00",25.8451821119077,"Approved","OW445"
"2023-04-01 12:00",25.8441827440701,"Approved","OW445"
"2023-04-01 13:00",25.8421833762326,"Approved","OW445"
"2023-04-01 14:00",25.8411840083951,"Approved","OW445"
"2023-04-01 15:00",25.8401846405576,"Approved","OW445"
"2023-04-01 16:00",25.8381852727201,"Approved","OW445"
"2023-04-01 17:00",25.8371859048825,"Approved","OW445"
"2023-04-01 18:00",25.836186537045,"Approved","OW445"
"2023-04-01 19:00",25.8341871692075,"Approved","OW445"
"2023-04-01 20:00",25.83318780137,"Approved","OW445"
"2023-04-01 21:00",25.8311884335324,"Approved","OW445"
"2023-04-01 22:00",25.8311890656949,"Approved","OW445"
"2023-04-01 23:00",25.8301896978574,"Approved","OW445"
"2023-04-02 00:00",25.8281903300199,"Approved","OW445"
"2023-04-02 01:00",25.8271909621824,"Approved","OW445"
"2023-04-02 02:00",25.8261915943448,"Approved","OW445"
"2023-04-02 03:00",25.8251922265073,"Approved","OW445"
"2023-04-02 04:00",25.8251928586698,"Approved","OW445"
"2023-04-02 05:00",25.8241934908323,"Approved","OW445"
"2023-04-02 06:00",25.8231941229947,"Approved","OW445"
"2023-04-02 07:00",25.8221947551572,"Approved","OW445"
"2023-04-02 08:00",25.8221953873197,"Approved","OW445"
"2023-04-02 09:00",25.8211960194822,"Approved","OW445"
"2023-04-02 10:00",25.8211966516446,"Approved","OW445"
"2023-04-02 11:00",25.8201972838071,"Approved","OW445"
"2023-04-02 12:00",25.8201979159696,"Approved","OW445"
"2023-04-02 13:00",25.8201985481321,"Approved","OW445"
"2023-04-02 14:00",25.8191991802946,"Approved","OW445"
"2023-04-02 15:00",25.819199812457,"Approved","OW445"
"2023-04-02 16:00",25.8212004446195,"Approved","OW445"
"2023-04-02 17:00",25.821201076782,"Approved","OW445"
"2023-04-02 18:00",25.8222017089445,"Approved","OW445"
"2023-04-02 19:00",25.8232023411069,"Approved","OW445"
"2023-04-02 20:00",25.8232029732694,"Approved","OW445"
"2023-04-02 21:00",25.8232036054319,"Approved","OW445"
"2023-04-02 22:00",25.8242042375944,"Approved","OW445"
"2023-04-02 23:00",25.8252048697569,"Approved","OW445"
"2023-04-03 00:00",25.8252055019193,"Approved","OW445"
"2023-04-03 01:00",25.8272061340818,"Approved","OW445"
"2023-04-03 02:00",25.8272067662443,"Approved","OW445"
"2023-04-03 03:00",25.8282073984068,"Approved","OW445"
"2023-04-03 04:00",25.8282080305692,"Approved","OW445"
"2023-04-03 05:00",25.8292086627317,"Approved","OW445"
"2023-04-03 06:00",25.8302092948942,"Approved","OW445"
"2023-04-03 07:00",25.8302099270567,"Approved","OW445"
"2023-04-03 08:00",25.8312105592191,"Approved","OW445"
"2023-04-03 09:00",25.8312111913816,"Approved","OW445"
"2023-04-03 10:00",25.8322118235441,"Approved","OW445"
"2023-04-03 11:00",25.8332124557066,"Approved","OW445"
"2023-04-03 12:00",25.8342130878691,"Approved","OW445"
"2023-04-03 13:00",25.8352137200315,"Approved","OW445"
"2023-04-03 14:00",25.835214352194,"Approved","OW445"
"2023-04-03 15:00",25.8372149843565,"Approved","OW445"
"2023-04-03 16:00",25.837215616519,"Approved","OW445"
"2023-04-03 17:00",25.8382162486814,"Approved","OW445"
"2023-04-03 18:00",25.8392168808439,"Approved","OW445"
"2023-04-03 19:00",25.8392175130064,"Approved","OW445"
"2023-04-03 20:00",25.8402181451689,"Approved","OW445"
"2023-04-03 21:00",25.8412187773313,"Approved","OW445"
"2023-04-03 22:00",25.8422194094938,"Approved","OW445"
"2023-04-03 23:00",25.8432200416563,"Approved","OW445"
"2023-04-04 00:00",25.8442206738188,"Approved","OW445"
"2023-04-04 01:00",25.8452213059813,"Approved","OW445"
"2023-04-04 02:00",25.8462219381437,"Approved","OW445"
"2023-04-04 03:00",25.8472225703062,"Approved","OW445"
"2023-04-04 04:00",25.8482232024687,"Approved","OW445"
"2023-04-04 05:00",25.8492238346312,"Approved","OW445"
"2023-04-04 06:00",25.8512244667936,"Approved","OW445"
"2023-04-04 07:00",25.8522250989561,"Approved","OW445"
"2023-04-04 08:00",25.8532257311186,"Approved","OW445"
"2023-04-04 09:00",25.8542263632811,"Approved","OW445"
"2023-04-04 10:00",25.8552269954436,"Approved","OW445"
"2023-04-04 11:00",25.857227627606,"Approved","OW445"
"2023-04-04 12:00",25.8582282597685,"Approved","OW445"
"2023-04-04 13:00",25.860228891931,"Approved","OW445"
"2023-04-04 14:00",25.8612295240935,"Approved","OW445"
"2023-04-04 15:00",25.8612301562559,"Approved","OW445"
"2023-04-04 16:00",25.8632307884184,"Approved","OW445"
"2023-04-04 17:00",25.8642314205809,"Approved","OW445"
"2023-04-04 18:00",25.8652320527434,"Approved","OW445"
"2023-04-04 19:00",25.8662326849058,"Approved","OW445"
"2023-04-04 20:00",25.8662333170683,"Approved","OW445"
"2023-04-04 21:00",25.8682339492308,"Approved","OW445"
"2023-04-04 22:00",25.8692345813933,"Approved","OW445"
"2023-04-04 23:00",25.8702352135558,"Approved","OW445"
"2023-04-05 00:00",25.8702358457182,"Approved","OW445"
"2023-04-05 01:00",25.8712364778807,"Approved","OW445"
"2023-04-05 03:00",25.8722377422057,"Approved","OW445"
"2023-04-05 04:00",25.8722383743681,"Approved","OW445"
"2023-04-05 05:00",25.8722390065306,"Approved","OW445"
"2023-04-05 06:00",25.8742396386931,"Approved","OW445"
"2023-04-05 07:00",25.8742402708556,"Approved","OW445"
"2023-04-05 08:00",25.874240903018,"Approved","OW445"
"2023-04-05 09:00",25.8752415351805,"Approved","OW445"
"2023-04-05 10:00",25.875242167343,"Approved","OW445"
"2023-04-05 11:00",25.8752427995055,"Approved","OW445"
"2023-04-05 12:00",25.875243431668,"Approved","OW445"
"2023-04-05 13:00",25.8752440638304,"Approved","OW445"
"2023-04-05 14:00",25.8752446959929,"Approved","OW445"
"2023-04-05 15:00",25.8762453281554,"Approved","OW445"
"2023-04-05 16:00",25.8752459603179,"Approved","OW445"
"2023-04-05 17:00",25.8752465924803,"Approved","OW445"
"2023-04-05 18:00",25.8752472246428,"Approved","OW445"
"2023-04-05 19:00",25.8752478568053,"Approved","OW445"
"2023-04-05 20:00",25.8752484889678,"Approved","OW445"
"2023-04-05 21:00",25.8752491211302,"Approved","OW445"
"2023-04-05 22:00",25.8762497532927,"Approved","OW445"
"2023-04-05 23:00",25.8762503854552,"Approved","OW445"
"2023-04-06 00:00",25.8752510176177,"Approved","OW445"
"2023-04-06 01:00",25.8752516497802,"Approved","OW445"
"2023-04-06 02:00",25.8752522819426,"Approved","OW445"
"2023-04-06 03:00",25.8752529141051,"Approved","OW445"
"2023-04-06 04:00",25.8752535462676,"Approved","OW445"
"2023-04-06 05:00",25.8752541784301,"Approved","OW445"
"2023-04-06 06:00",25.8752548105925,"Approved","OW445"
"2023-04-06 07:00",25.875255442755,"Approved","OW445"
"2023-04-06 08:00",25.8742560749175,"Approved","OW445"
"2023-04-06 09:00",25.87425670708,"Approved","OW445"
"2023-04-06 10:00",25.8732573392425,"Approved","OW445"
"2023-04-06 11:00",25.8732579714049,"Approved","OW445"
"2023-04-06 12:00",25.8732586035674,"Approved","OW445"
"2023-04-06 13:00",25.8732592357299,"Approved","OW445"
"2023-04-06 14:00",25.8722598678924,"Approved","OW445"
"2023-04-06 15:00",25.8722605000548,"Approved","OW445"
"2023-04-06 16:00",25.8722611322173,"Approved","OW445"
"2023-04-06 17:00",25.8712617643798,"Approved","OW445"
"2023-04-06 18:00",25.8712623965423,"Approved","OW445"
"2023-04-06 19:00",25.8702630287047,"Approved","OW445"
"2023-04-06 20:00",25.8702636608672,"Approved","OW445"
"2023-04-06 21:00",25.8702642930297,"Approved","OW445"
"2023-04-06 22:00",25.8692649251922,"Approved","OW445"
"2023-04-06 23:00",25.8682655573547,"Approved","OW445"
"2023-04-07 00:00",25.8682661895171,"Approved","OW445"
"2023-04-07 01:00",25.8672668216796,"Approved","OW445"
"2023-04-07 02:00",25.8662674538421,"Approved","OW445"
"2023-04-07 03:00",25.8652680860046,"Approved","OW445"
"2023-04-07 04:00",25.864268718167,"Approved","OW445"
"2023-04-07 05:00",25.8632693503295,"Approved","OW445"
"2023-04-07 06:00",25.862269982492,"Approved","OW445"
"2023-04-07 07:00",25.8612706146545,"Approved","OW445"
"2023-04-07 08:00",25.860271246817,"Approved","OW445"
"2023-04-07 09:00",25.8592718789794,"Approved","OW445"
"2023-04-07 10:00",25.8582725111419,"Approved","OW445"
"2023-04-07 11:00",25.8572731433044,"Approved","OW445"
"2023-04-07 12:00",25.8562737754669,"Approved","OW445"
"2023-04-07 13:00",25.8542744076293,"Approved","OW445"
"2023-04-07 14:00",25.8532750397918,"Approved","OW445"
"2023-04-07 15:00",25.8522756719543,"Approved","OW445"
"2023-04-07 16:00",25.8442763041168,"Approved","OW445"
"2023-04-07 17:00",25.8422769362792,"Approved","OW445"
"2023-04-07 18:00",25.8412775684417,"Approved","OW445"
"2023-04-07 19:00",25.8402782006042,"Approved","OW445"
"2023-04-07 20:00",25.8392788327667,"Approved","OW445"
"2023-04-07 21:00",25.8382794649292,"Approved","OW445"
"2023-04-07 22:00",25.8372800970916,"Approved","OW445"
"2023-04-07 23:00",25.8362807292541,"Approved","OW445"
"2023-04-08 00:00",25.8352813614166,"Approved","OW445"
"2023-04-08 01:00",25.8352819935791,"Approved","OW445"
"2023-04-08 02:00",25.8342826257415,"Approved","OW445"
"2023-04-08 03:00",25.833283257904,"Approved","OW445"
"2023-04-08 04:00",25.8322838900665,"Approved","OW445"
"2023-04-08 05:00",25.831284522229,"Approved","OW445"
"2023-04-08 06:00",25.8302851543915,"Approved","OW445"
"2023-04-08 07:00",25.8302857865539,"Approved","OW445"
"2023-04-08 08:00",25.8302864187164,"Approved","OW445"
"2023-04-08 09:00",25.8292870508789,"Approved","OW445"
"2023-04-08 10:00",25.8282876830414,"Approved","OW445"
"2023-04-08 11:00",25.8272883152038,"Approved","OW445"
"2023-04-08 12:00",25.8272889473663,"Approved","OW445"
"2023-04-08 13:00",25.8262895795288,"Approved","OW445"
"2023-04-08 14:00",25.8262902116913,"Approved","OW445"
"2023-04-08 15:00",25.8252908438537,"Approved","OW445"
"2023-04-08 16:00",25.8242914760162,"Approved","OW445"
"2023-04-08 17:00",25.8252921081787,"Approved","OW445"
"2023-04-08 18:00",25.8242927403412,"Approved","OW445"
"2023-04-08 19:00",25.8232933725037,"Approved","OW445"
"2023-04-08 20:00",25.8232940046661,"Approved","OW445"
"2023-04-08 21:00",25.8232946368286,"Approved","OW445"
"2023-04-08 22:00",25.8232952689911,"Approved","OW445"
"2023-04-08 23:00",25.8232959011536,"Approved","OW445"
"2023-04-09 00:00",25.823296533316,"Approved","OW445"
"2023-04-09 01:00",25.8222971654785,"Approved","OW445"
"2023-04-09 02:00",25.822297797641,"Approved","OW445"
"2023-04-09 03:00",25.8222984298035,"Approved","OW445"
"2023-04-09 04:00",25.8222990619659,"Approved","OW445"
"2023-04-09 05:00",25.8212996941284,"Approved","OW445"
"2023-04-09 06:00",25.8223003262909,"Approved","OW445"
"2023-04-09 07:00",25.8213009584534,"Approved","OW445"
"2023-04-09 08:00",25.8223015906159,"Approved","OW445"
"2023-04-09 09:00",25.8223022227783,"Approved","OW445"
"2023-04-09 10:00",25.8233028549408,"Approved","OW445"
"2023-04-09 11:00",25.8223034871033,"Approved","OW445"
"2023-04-09 12:00",25.8233041192658,"Approved","OW445"
"2023-04-09 13:00",25.8223047514282,"Approved","OW445"
"2023-04-09 14:00",25.8223053835907,"Approved","OW445"
"2023-04-09 15:00",25.8223060157532,"Approved","OW445"
"2023-04-09 16:00",25.8223066479157,"Approved","OW445"
"2023-04-09 17:00",25.8223072800781,"Approved","OW445"
"2023-04-09 18:00",25.8213079122406,"Approved","OW445"
"2023-04-09 19:00",25.8213085444031,"Approved","OW445"
"2023-04-09 20:00",25.8203091765656,"Approved","OW445"
"2023-04-09 21:00",25.8203098087281,"Approved","OW445"
"2023-04-09 22:00",25.8203104408905,"Approved","OW445"
"2023-04-09 23:00",25.819311073053,"Approved","OW445"
"2023-04-10 00:00",25.8183117052155,"Approved","OW445"
"2023-04-10 01:00",25.819312337378,"Approved","OW445"
"2023-04-10 02:00",25.8183129695404,"Approved","OW445"
"2023-04-10 03:00",25.8193136017029,"Approved","OW445"
"2023-04-10 04:00",25.8183142338654,"Approved","OW445"
"2023-04-10 05:00",25.8193148660279,"Approved","OW445"
"2023-04-10 06:00",25.8193154981904,"Approved","OW445"
"2023-04-10 07:00",25.8203161303528,"Approved","OW445"
"2023-04-10 08:00",25.8203167625153,"Approved","OW445"
"2023-04-10 09:00",25.8213173946778,"Approved","OW445"
"2023-04-10 10:00",25.8203180268403,"Approved","OW445"
"2023-04-10 11:00",25.8223186590027,"Approved","OW445"
"2023-04-10 12:00",25.8223192911652,"Approved","OW445"
"2023-04-10 13:00",25.8233199233277,"Approved","OW445"
"2023-04-10 14:00",25.8243205554902,"Approved","OW445"
"2023-04-10 15:00",25.8253211876526,"Approved","OW445"
"2023-04-10 16:00",25.8213218198151,"Approved","OW445"
"2023-04-10 17:00",25.8203224519776,"Approved","OW445"
"2023-04-10 18:00",25.8223230841401,"Approved","OW445"
"2023-04-10 19:00",25.8223237163026,"Approved","OW445"
"2023-04-10 20:00",25.823324348465,"Approved","OW445"
"2023-04-10 21:00",25.8243249806275,"Approved","OW445"
"2023-04-10 22:00",25.82532561279,"Approved","OW445"
"2023-04-10 23:00",25.8263262449525,"Approved","OW445"
"2023-04-11 00:00",25.8263268771149,"Approved","OW445"
"2023-04-11 01:00",25.8273275092774,"Approved","OW445"
"2023-04-11 02:00",25.8283281414399,"Approved","OW445"
"2023-04-11 03:00",25.8293287736024,"Approved","OW445"
"2023-04-11 04:00",25.8293294057648,"Approved","OW445"
"2023-04-11 05:00",25.8303300379273,"Approved","OW445"
"2023-04-11 06:00",25.8313306700898,"Approved","OW445"
"2023-04-11 07:00",25.8323313022523,"Approved","OW445"
"2023-04-11 08:00",25.8333319344148,"Approved","OW445"
"2023-04-11 09:00",25.8333325665772,"Approved","OW445"
"2023-04-11 10:00",25.8343331987397,"Approved","OW445"
"2023-04-11 11:00",25.8343338309022,"Approved","OW445"
"2023-04-11 12:00",25.8353344630647,"Approved","OW445"
"2023-04-11 13:00",25.8363350952271,"Approved","OW445"
"2023-04-11 14:00",25.8363357273896,"Approved","OW445"
"2023-04-11 15:00",25.8373363595521,"Approved","OW445"
"2023-04-11 16:00",25.8423369917146,"Approved","OW445"
"2023-04-11 17:00",25.8433376238771,"Approved","OW445"
"2023-04-11 18:00",25.8433382560395,"Approved","OW445"
"2023-04-11 19:00",25.845338888202,"Approved","OW445"
"2023-04-11 20:00",25.8453395203645,"Approved","OW445"
"2023-04-11 21:00",25.845340152527,"Approved","OW445"
"2023-04-11 22:00",25.8463407846894,"Approved","OW445"
"2023-04-11 23:00",25.8473414168519,"Approved","OW445"
"2023-04-12 00:00",25.8473420490144,"Approved","OW445"
"2023-04-12 01:00",25.8483426811769,"Approved","OW445"
"2023-04-12 02:00",25.8493433133393,"Approved","OW445"
"2023-04-12 03:00",25.8493439455018,"Approved","OW445"
"2023-04-12 04:00",25.8503445776643,"Approved","OW445"
"2023-04-12 05:00",25.8503452098268,"Approved","OW445"
"2023-04-12 06:00",25.8523458419893,"Approved","OW445"
"2023-04-12 07:00",25.8523464741517,"Approved","OW445"
"2023-04-12 08:00",25.8533471063142,"Approved","OW445"
"2023-04-12 09:00",25.8543477384767,"Approved","OW445"
"2023-04-12 10:00",25.8553483706392,"Approved","OW445"
"2023-04-12 11:00",25.8553490028016,"Approved","OW445"
"2023-04-12 12:00",25.8563496349641,"Approved","OW445"
"2023-04-12 13:00",25.8573502671266,"Approved","OW445"
"2023-04-12 14:00",25.8573508992891,"Approved","OW445"
"2023-04-12 15:00",25.8593515314516,"Approved","OW445"
"2023-04-12 16:00",25.860352163614,"Approved","OW445"
"2023-04-12 17:00",25.8603527957765,"Approved","OW445"
"2023-04-12 18:00",25.861353427939,"Approved","OW445"
"2023-04-12 19:00",25.8623540601015,"Approved","OW445"
"2023-04-12 20:00",25.8623546922639,"Approved","OW445"
"2023-04-12 21:00",25.8633553244264,"Approved","OW445"
"2023-04-12 23:00",25.8643565887514,"Approved","OW445"
"2023-04-13 00:00",25.8643572209138,"Approved","OW445"
"2023-04-13 01:00",25.8653578530763,"Approved","OW445"
"2023-04-13 02:00",25.8653584852388,"Approved","OW445"
"2023-04-13 03:00",25.8653591174013,"Approved","OW445"
"2023-04-13 04:00",25.8653597495638,"Approved","OW445"
"2023-04-13 05:00",25.8663603817262,"Approved","OW445"
"2023-04-13 06:00",25.8663610138887,"Approved","OW445"
"2023-04-13 07:00",25.8673616460512,"Approved","OW445"
"2023-04-13 08:00",25.8673622782137,"Approved","OW445"
"2023-04-13 09:00",25.8673629103761,"Approved","OW445"
"2023-04-13 10:00",25.8683635425386,"Approved","OW445"
"2023-04-13 11:00",25.8683641747011,"Approved","OW445"
"2023-04-13 12:00",25.8693648068636,"Approved","OW445"
"2023-04-13 13:00",25.870365439026,"Approved","OW445"
"2023-04-13 14:00",25.8703660711885,"Approved","OW445"
"2023-04-13 15:00",25.870366703351,"Approved","OW445"
"2023-04-13 16:00",25.8713673355135,"Approved","OW445"
"2023-04-13 17:00",25.872367967676,"Approved","OW445"
"2023-04-13 18:00",25.8713685998384,"Approved","OW445"
"2023-04-13 19:00",25.8723692320009,"Approved","OW445"
"2023-04-13 20:00",25.8723698641634,"Approved","OW445"
"2023-04-13 21:00",25.8733704963259,"Approved","OW445"
"2023-04-13 22:00",25.8733711284883,"Approved","OW445"
"2023-04-13 23:00",25.8743717606508,"Approved","OW445"
"2023-04-14 00:00",25.8743723928133,"Approved","OW445"
"2023-04-14 01:00",25.8753730249758,"Approved","OW445"
"2023-04-14 02:00",25.8753736571383,"Approved","OW445"
"2023-04-14 03:00",25.8753742893007,"Approved","OW445"
"2023-04-14 04:00",25.8763749214632,"Approved","OW445"
"2023-04-14 05:00",25.8773755536257,"Approved","OW445"
"2023-04-14 06:00",25.8773761857882,"Approved","OW445"
"2023-04-14 07:00",25.8783768179506,"Approved","OW445"
"2023-04-14 08:00",25.8783774501131,"Approved","OW445"
"2023-04-14 09:00",25.8783780822756,"Approved","OW445"
"2023-04-14 10:00",25.8793787144381,"Approved","OW445"
"2023-04-14 11:00",25.8793793466005,"Approved","OW445"
"2023-04-14 12:00",25.880379978763,"Approved","OW445"
"2023-04-14 13:00",25.8813806109255,"Approved","OW445"
"2023-04-14 14:00",25.881381243088,"Approved","OW445"
"2023-04-14 15:00",25.8833818752505,"Approved","OW445"
"2023-04-14 16:00",25.8833825074129,"Approved","OW445"
"2023-04-14 17:00",25.8843831395754,"Approved","OW445"
"2023-04-14 18:00",25.8843837717379,"Approved","OW445"
"2023-04-14 20:00",25.8853850360628,"Approved","OW445"
"2023-04-14 21:00",25.8863856682253,"Approved","OW445"
"2023-04-14 22:00",25.8863863003878,"Approved","OW445"
"2023-04-14 23:00",25.8873869325503,"Approved","OW445"
"2023-04-15 00:00",25.8883875647127,"Approved","OW445"
"2023-04-15 01:00",25.8883881968752,"Approved","OW445"
"2023-04-15 02:00",25.8883888290377,"Approved","OW445"
"2023-04-15 03:00",25.8893894612002,"Approved","OW445"
"2023-04-15 04:00",25.8903900933627,"Approved","OW445"
"2023-04-15 05:00",25.8903907255251,"Approved","OW445"
"2023-04-15 06:00",25.8913913576876,"Approved","OW445"
"2023-04-15 07:00",25.8913919898501,"Approved","OW445"
"2023-04-15 08:00",25.8913926220126,"Approved","OW445"
"2023-04-15 09:00",25.892393254175,"Approved","OW445"
"2023-04-15 10:00",25.8933938863375,"Approved","OW445"
"2023-04-15 11:00",25.8933945185,"Approved","OW445"
"2023-04-15 12:00",25.8943951506625,"Approved","OW445"
"2023-04-15 13:00",25.894395782825,"Approved","OW445"
"2023-04-15 14:00",25.8953964149874,"Approved","OW445"
"2023-04-15 15:00",25.8953970471499,"Approved","OW445"
"2023-04-15 16:00",25.8953976793124,"Approved","OW445"
"2023-04-15 17:00",25.8963983114749,"Approved","OW445"
"2023-04-15 18:00",25.8963989436373,"Approved","OW445"
"2023-04-15 19:00",25.8973995757998,"Approved","OW445"
"2023-04-16 09:00",25.9014084260745,"Approved","OW445"
"2023-04-16 10:00",25.901409058237,"Approved","OW445"
"2023-04-16 11:00",25.9014096903994,"Approved","OW445"
"2023-04-16 12:00",25.9014103225619,"Approved","OW445"
"2023-04-16 13:00",25.9004109547244,"Approved","OW445"
"2023-04-16 14:00",25.9004115868869,"Approved","OW445"
"2023-04-16 15:00",25.9004122190494,"Approved","OW445"
"2023-04-16 16:00",25.8994128512118,"Approved","OW445"
"2023-04-16 17:00",25.8994134833743,"Approved","OW445"
"2023-04-17 10:00",25.8824242301364,"Approved","OW445"
"2023-04-17 11:00",25.8814248622989,"Approved","OW445"
"2023-04-17 12:00",25.8804254944614,"Approved","OW445"
"2023-04-17 13:00",25.8794261266239,"Approved","OW445"
"2023-04-17 14:00",25.8774267587863,"Approved","OW445"
"2023-04-17 15:00",25.8764273909488,"Approved","OW445"
"2023-04-17 16:00",25.8764280231113,"Approved","OW445"
"2023-04-17 17:00",25.8754286552738,"Approved","OW445"
"2023-04-18 09:00",25.8634387698734,"Approved","OW445"
"2023-04-18 10:00",25.8624394020359,"Approved","OW445"
"2023-04-18 11:00",25.8624400341984,"Approved","OW445"
"2023-04-18 12:00",25.8624406663608,"Approved","OW445"
"2023-04-18 13:00",25.8614412985233,"Approved","OW445"
"2023-04-18 14:00",25.8614419306858,"Approved","OW445"
"2023-04-18 15:00",25.8614425628483,"Approved","OW445"
"2023-04-18 16:00",25.8604431950107,"Approved","OW445"
"2023-04-18 17:00",25.8604438271732,"Approved","OW445"
"2023-04-19 11:00",25.8714552060978,"Approved","OW445"